Decatur, TX

11:45 PM CST on December 17, 2017 (GMT -0600)
Decatur

Weather History for KLUD - February, 2013

Change the Weather History Date:

Friday, February 22, 2013

  Actual Average (KDTO) Record (KDTO)
Temperature  
Mean Temperature 36 °F -  
Max Temperature 48 °F 57 °F 82 °F (2017)
Min Temperature 25 °F 36 °F 21 °F (2009)
Degree Days  
Heating Degree Days 28    
Moisture  
Dew Point 22 °F    
Average Humidity 59    
Maximum Humidity 78    
Minimum Humidity 38    
Precipitation  
Precipitation 0.00 in - - ()
Sea Level Pressure  
Sea Level Pressure 30.06 in    
Wind  
Wind Speed 7 mph (NNW)    
Max Wind Speed 14 mph    
Max Gust Speed 18 mph    
Visibility 10 miles    
Events      
Averages and records for this station are not official NWS values.
T = Trace of Precipitation, MM = Missing Value Source: NWS Daily Summary

Daily Weather History Graph

Daily Weather History Graph

Search for Another Location

Airport or City:

Trip Planner

Search our weather history database for the weather conditions in past years. The results will help you decide how hot, cold, wet, or windy it might be!

Date:

Astronomy

Feb. 22, 2013 Rise Set
Actual Time 7:06 AM CST 6:21 PM CST
Civil Twilight 6:41 AM CST 6:46 PM CST
Nautical Twilight 6:12 AM CST 7:15 PM CST
Astronomical Twilight 5:43 AM CST 7:44 PM CST
Moon 3:39 PM CST (2/22) 4:46 AM CST (2/22)
Length of Visible Light 12h 05m
Length of Day
11h 15m
Waxing Gibbous, 90% of the Moon is Illuminated
Feb 22
Waxing Gibbous
Feb 25
Full
Mar 4
Last Quarter
Mar 11
New
Mar 19
First Quarter

Hourly Weather History & Observations

Time (CST) Temp. Windchill Dew Point Humidity Pressure Visibility Wind Dir Wind Speed Gust Speed Precip Events Conditions
12:15 AM 33.6 °F 25.6 °F 25.9 °F 73% 29.94 in 10.0 mi North 10.4 mph - N/A   Scattered Clouds
12:35 AM 32.5 °F 23.2 °F 25.0 °F 74% 29.95 in 10.0 mi North 12.7 mph 18.4 mph N/A   Clear
12:55 AM 32.0 °F 24.2 °F 24.6 °F 74% 29.97 in 10.0 mi NNW 9.2 mph - N/A   Clear
1:15 AM 31.8 °F 23.3 °F 25.2 °F 76% 29.97 in 10.0 mi NNW 10.4 mph 16.1 mph N/A   Clear
1:35 AM 30.9 °F 21.7 °F 24.6 °F 77% 29.97 in 10.0 mi NNW 11.5 mph 18.4 mph N/A   Clear
1:55 AM 30.6 °F 20.2 °F 23.7 °F 76% 29.98 in 10.0 mi NNW 13.8 mph 18.4 mph N/A   Clear
2:15 AM 30.0 °F 21.1 °F 22.6 °F 74% 29.99 in 10.0 mi NNW 10.4 mph 18.4 mph N/A   Clear
2:55 AM 28.9 °F 20.4 °F 21.9 °F 75% 29.98 in 10.0 mi North 9.2 mph 16.1 mph N/A   Clear
3:15 AM 28.4 °F 20.4 °F 21.2 °F 74% 29.99 in 10.0 mi North 8.1 mph 16.1 mph N/A   Clear
3:35 AM 28.2 °F 20.2 °F 21.0 °F 74% 30.00 in 10.0 mi North 8.1 mph - N/A   Clear
3:55 AM 27.9 °F 21.5 °F 20.3 °F 73% 30.01 in 10.0 mi NNW 5.8 mph - N/A   Clear
4:15 AM 27.5 °F 19.3 °F 20.1 °F 74% 30.02 in 10.0 mi NNW 8.1 mph - N/A   Clear
4:35 AM 27.3 °F 19.9 °F 20.1 °F 74% 30.01 in 10.0 mi NNW 6.9 mph - N/A   Clear
4:55 AM 27.1 °F 19.7 °F 19.4 °F 73% 30.03 in 10.0 mi NW 6.9 mph - N/A   Clear
5:15 AM 27.1 °F 20.7 °F 19.0 °F 72% 30.06 in 10.0 mi NW 5.8 mph - N/A   Clear
5:35 AM 26.8 °F 20.2 °F 19.2 °F 73% 30.07 in 10.0 mi NW 5.8 mph - N/A   Clear
5:55 AM 27.0 °F - 18.9 °F 72% 30.09 in 10.0 mi Calm Calm - N/A   Clear
6:15 AM 26.4 °F - 18.9 °F 73% 30.09 in 10.0 mi Calm Calm - N/A   Clear
6:35 AM 25.7 °F - 19.2 °F 76% 30.10 in 10.0 mi Calm Calm - N/A   Clear
6:55 AM 25.7 °F - 19.6 °F 78% 30.11 in 10.0 mi Calm Calm - N/A   Clear
7:15 AM 25.7 °F 20.1 °F 19.4 °F 77% 30.11 in 10.0 mi NW 4.6 mph - N/A   Clear
7:35 AM 25.9 °F 21.7 °F 19.8 °F 78% 30.12 in 10.0 mi NW 3.5 mph - N/A   Clear
7:55 AM 27.1 °F 19.7 °F 20.1 °F 75% 30.13 in 10.0 mi NW 6.9 mph - N/A   Clear
8:15 AM 27.1 °F 18.9 °F 19.4 °F 73% 30.12 in 10.0 mi NNW 8.1 mph - N/A   Clear
8:35 AM 28.4 °F 19.1 °F 19.8 °F 70% 30.12 in 10.0 mi NNW 10.4 mph - N/A   Clear
8:55 AM 30.2 °F 22.6 °F 18.7 °F 62% 30.13 in 10.0 mi North 8.1 mph - N/A   Clear
9:15 AM 30.6 °F 23.8 °F 18.0 °F 60% 30.15 in 10.0 mi NNE 6.9 mph - N/A   Clear
9:35 AM 30.7 °F 23.3 °F 18.0 °F 59% 30.15 in 10.0 mi North 8.1 mph - N/A   Clear
9:55 AM 30.9 °F 25.2 °F 18.0 °F 59% 30.14 in 10.0 mi NNE 5.8 mph - N/A   Clear
10:15 AM 32.0 °F 28.7 °F 18.7 °F 58% 30.14 in 10.0 mi North 3.5 mph - N/A   Clear
10:35 AM 32.0 °F - 18.5 °F 58% 30.14 in 10.0 mi Calm Calm - N/A   Clear
10:55 AM 34.5 °F 31.6 °F 19.0 °F 53% 30.14 in 10.0 mi NNW 3.5 mph - N/A   Clear
11:15 AM 34.9 °F 29.9 °F 19.2 °F 53% 30.14 in 10.0 mi NNE 5.8 mph - N/A   Clear
11:35 AM 36.1 °F 32.3 °F 20.1 °F 52% 30.13 in 10.0 mi NNE 4.6 mph - N/A   Clear
11:55 AM 36.1 °F 31.4 °F 19.0 °F 50% 30.12 in 10.0 mi North 5.8 mph - N/A   Clear
12:15 PM 37.6 °F 34.0 °F 19.4 °F 48% 30.11 in 10.0 mi NNE 4.6 mph - N/A   Clear
12:35 PM 39.2 °F 35.0 °F 20.1 °F 46% 30.10 in 10.0 mi North 5.8 mph - N/A   Clear
12:55 PM 39.6 °F 34.0 °F 20.1 °F 46% 30.08 in 10.0 mi NNW 8.1 mph - N/A   Clear
1:15 PM 41.2 °F 35.5 °F 20.8 °F 44% 30.07 in 10.0 mi North 9.2 mph - N/A   Clear
1:35 PM 42.4 °F 39.6 °F 20.8 °F 42% 30.05 in 10.0 mi NNW 4.6 mph - N/A   Clear
1:55 PM 43.0 °F 41.3 °F 20.7 °F 41% 30.04 in 10.0 mi NW 3.5 mph - N/A   Clear
2:15 PM 44.8 °F 41.6 °F 22.5 °F 41% 30.04 in 10.0 mi NNE 5.8 mph - N/A   Clear
2:35 PM 45.0 °F - 22.1 °F 40% 30.03 in 10.0 mi Calm Calm - N/A   Clear
2:55 PM 45.9 °F - 21.7 °F 38% 30.03 in 10.0 mi Calm Calm - N/A   Clear
3:15 PM 46.8 °F - 23.4 °F 40% 30.01 in 10.0 mi NNE 5.8 mph - N/A   Clear
3:35 PM 47.3 °F - 23.0 °F 38% 30.01 in 10.0 mi NW 6.9 mph - N/A   Clear
3:55 PM 48.2 °F - 23.7 °F 38% 30.00 in 10.0 mi NNW 8.1 mph - N/A   Clear
4:15 PM 47.5 °F - 23.5 °F 39% 30.01 in 10.0 mi NNW 6.9 mph - N/A   Clear
4:35 PM 47.8 °F - 24.1 °F 39% 30.01 in 10.0 mi NNW 8.1 mph - N/A   Clear
4:55 PM 47.3 °F - 23.5 °F 39% 30.01 in 10.0 mi NNE 6.9 mph - N/A   Clear
5:15 PM 47.3 °F - 23.7 °F 40% 30.01 in 10.0 mi North 8.1 mph - N/A   Clear
5:35 PM 46.4 °F 44.3 °F 23.2 °F 40% 30.02 in 10.0 mi North 4.6 mph - N/A   Clear
5:55 PM 45.5 °F 43.2 °F 23.7 °F 42% 30.03 in 10.0 mi NNW 4.6 mph - N/A   Clear
6:15 PM 43.9 °F 41.3 °F 24.3 °F 46% 30.04 in 10.0 mi NNW 4.6 mph - N/A   Clear
6:35 PM 42.6 °F 39.0 °F 25.0 °F 50% 30.05 in 10.0 mi North 5.8 mph - N/A   Clear
6:55 PM 40.8 °F 38.8 °F 25.5 °F 55% 30.07 in 10.0 mi NNW 3.5 mph - N/A   Clear
7:15 PM 39.7 °F 37.6 °F 25.3 °F 56% 30.08 in 10.0 mi NNW 3.5 mph - N/A   Clear
7:35 PM 40.1 °F 38.0 °F 24.8 °F 54% 30.08 in 10.0 mi NNW 3.5 mph - N/A   Clear
7:55 PM 40.1 °F - 24.4 °F 54% 30.08 in 10.0 mi Calm Calm - N/A   Clear
8:15 PM 40.1 °F 38.0 °F 23.9 °F 52% 30.09 in 10.0 mi NNW 3.5 mph - N/A   Clear
8:35 PM 38.8 °F 35.4 °F 24.4 °F 56% 30.09 in 10.0 mi North 4.6 mph - N/A   Clear
8:55 PM 38.3 °F 34.8 °F 24.6 °F 58% 30.10 in 10.0 mi North 4.6 mph - N/A   Clear
9:15 PM 37.6 °F - 25.7 °F 62% 30.09 in 10.0 mi Calm Calm - N/A   Clear
9:35 PM 37.4 °F 34.9 °F 25.0 °F 61% 30.10 in 10.0 mi NNW 3.5 mph - N/A   Clear
9:55 PM 36.5 °F 32.7 °F 24.6 °F 62% 30.12 in 10.0 mi North 4.6 mph - N/A   Clear
10:15 PM 36.7 °F 34.1 °F 24.6 °F 62% 30.12 in 10.0 mi NNW 3.5 mph - N/A   Clear
10:35 PM 35.6 °F 32.8 °F 24.6 °F 64% 30.12 in 10.0 mi NW 3.5 mph - N/A   Clear
10:55 PM 35.8 °F 33.0 °F 24.3 °F 63% 30.11 in 10.0 mi North 3.5 mph - N/A   Clear
11:15 PM 35.2 °F 31.2 °F 24.4 °F 65% 30.10 in 10.0 mi North 4.6 mph - N/A   Clear
11:55 PM 34.0 °F 28.0 °F 24.3 °F 68% 30.09 in 10.0 mi NNE 6.9 mph - N/A   Clear